TimeMST,TemperatureF,Dew PointF,Humidity,Sea Level PressureIn,VisibilityMPH,Wind Direction,Wind SpeedMPH,Gust SpeedMPH,PrecipitationIn,Events,Conditions,WindDirDegrees,DateUTC
12:51 AM,28.0,25.0,88,29.75,7.0,SE,9.2,-,0.00,Snow,Light Snow,130,2011-11-13 07:51:00
1:51 AM,28.0,26.1,92,29.73,6.0,SE,10.4,-,0.02,Snow,Light Snow,130,2011-11-13 08:51:00
2:28 AM,28.4,26.6,93,29.66,2.5,SE,9.2,-,0.01,Snow,Light Snow,130,2011-11-13 09:28:00
2:41 AM,28.4,26.6,93,29.65,4.0,SE,10.4,-,0.01,Snow,Light Snow,130,2011-11-13 09:41:00
2:51 AM,28.9,27.0,92,29.72,5.0,SE,8.1,-,0.02,Snow,Light Snow,140,2011-11-13 09:51:00
3:51 AM,28.9,26.1,89,29.71,10.0,SE,8.1,-,0.00,,Overcast,130,2011-11-13 10:51:00
4:51 AM,30.0,27.0,88,29.70,10.0,SSE,9.2,18.4,N/A,,Overcast,150,2011-11-13 11:51:00
5:51 AM,30.0,27.0,88,29.70,10.0,NE,4.6,-,N/A,,Overcast,40,2011-11-13 12:51:00
6:51 AM,30.9,27.0,85,29.71,10.0,Calm,Calm,-,N/A,,Overcast,0,2011-11-13 13:51:00
8:51 AM,30.9,27.0,85,29.75,10.0,West,3.5,-,N/A,,Overcast,280,2011-11-13 15:51:00
9:09 AM,30.2,26.6,86,29.69,10.0,Calm,Calm,-,N/A,,Overcast,0,2011-11-13 16:09:00
9:32 AM,30.2,26.6,86,29.69,10.0,Calm,Calm,-,N/A,,Overcast,0,2011-11-13 16:32:00
9:51 AM,32.0,27.0,82,29.77,10.0,Calm,Calm,-,N/A,,Overcast,0,2011-11-13 16:51:00
10:51 AM,33.1,26.1,75,29.79,10.0,Calm,Calm,-,N/A,,Overcast,0,2011-11-13 17:51:00
11:51 AM,33.1,27.0,78,29.81,10.0,Calm,Calm,-,N/A,,Overcast,0,2011-11-13 18:51:00
12:40 PM,35.6,24.8,65,29.75,10.0,SW,8.1,17.3,N/A,,Mostly Cloudy,230,2011-11-13 19:40:00
12:59 PM,35.6,26.6,70,29.74,10.0,West,4.6,-,N/A,,Mostly Cloudy,280,2011-11-13 19:59:00
1:06 PM,37.4,26.6,65,29.74,10.0,Variable,5.8,-,N/A,,Overcast,0,2011-11-13 20:06:00
1:45 PM,37.4,26.6,65,29.75,10.0,West,11.5,-,N/A,,Overcast,280,2011-11-13 20:45:00
2:51 PM,36.0,26.1,67,29.81,10.0,West,6.9,-,N/A,,Partly Cloudy,260,2011-11-13 21:51:00
3:51 PM,37.0,25.0,62,29.80,10.0,SW,10.4,-,N/A,,Partly Cloudy,230,2011-11-13 22:51:00
4:51 PM,34.0,24.1,67,29.81,10.0,SSW,5.8,-,N/A,,Scattered Clouds,210,2011-11-13 23:51:00
5:51 PM,32.0,25.0,75,29.83,10.0,ESE,3.5,-,N/A,,Mostly Cloudy,120,2011-11-14 00:51:00
6:51 PM,32.0,24.1,73,29.82,10.0,ESE,8.1,-,N/A,,Partly Cloudy,120,2011-11-14 01:51:00
7:51 PM,30.9,24.1,76,29.83,10.0,Calm,Calm,-,N/A,,Mostly Cloudy,0,2011-11-14 02:51:00
8:51 PM,30.0,25.0,82,29.83,10.0,Calm,Calm,-,N/A,,Clear,0,2011-11-14 03:51:00
9:51 PM,28.9,25.0,85,29.84,10.0,Calm,Calm,-,N/A,,Clear,0,2011-11-14 04:51:00
10:51 PM,28.0,25.0,88,29.83,10.0,Calm,Calm,-,N/A,,Clear,0,2011-11-14 05:51:00
11:51 PM,26.1,24.1,92,29.83,10.0,Calm,Calm,-,N/A,,Clear,0,2011-11-14 06:51:00